Time,TemperatureF,DewpointF,PressureIn,WindDirection,WindDirectionDegrees,WindSpeedMPH,WindSpeedGustMPH,Humidity,HourlyPrecipIn,Conditions,Clouds,dailyrainin,SoftwareType,DateUTC
2013-07-07 00:07:00,77.9,62.0,29.89,SE,145,0.0,-999.0,59,-99.99,,,0.00,weatherlink.com 1.10,2013-07-07 05:07:00,
2013-07-07 00:22:00,77.7,63.0,29.89,SE,145,0.0,-999.0,60,-99.99,,,0.00,weatherlink.com 1.10,2013-07-07 05:22:00,
2013-07-07 00:37:00,77.6,63.0,29.89,SE,145,0.0,-999.0,60,-99.99,,,0.00,weatherlink.com 1.10,2013-07-07 05:37:00,
2013-07-07 00:52:00,77.4,63.0,29.89,SSE,148,0.0,-999.0,61,-99.99,,,0.00,weatherlink.com 1.10,2013-07-07 05:52:00,
2013-07-07 01:07:00,76.8,63.0,29.89,SSE,148,0.0,-999.0,62,-99.99,,,0.00,weatherlink.com 1.10,2013-07-07 06:07:00,
2013-07-07 01:22:00,76.5,63.0,29.88,SSE,153,0.0,-999.0,63,-99.99,,,0.00,weatherlink.com 1.10,2013-07-07 06:22:00,
2013-07-07 01:37:00,76.1,63.0,29.88,SSE,153,0.0,-999.0,64,-99.99,,,0.00,weatherlink.com 1.10,2013-07-07 06:37:00,
2013-07-07 01:52:00,75.6,63.0,29.88,SSE,153,0.0,-999.0,66,-99.99,,,0.00,weatherlink.com 1.10,2013-07-07 06:52:00,
2013-07-07 02:07:00,75.1,63.0,29.88,SSE,157,3.0,-999.0,67,-99.99,,,0.00,weatherlink.com 1.10,2013-07-07 07:07:00,
2013-07-07 02:22:00,75.1,63.0,29.87,SSE,163,0.0,-999.0,67,-99.99,,,0.00,weatherlink.com 1.10,2013-07-07 07:22:00,
2013-07-07 02:37:00,75.4,62.0,29.87,South,169,4.0,-999.0,64,-99.99,,,0.00,weatherlink.com 1.10,2013-07-07 07:37:00,
2013-07-07 02:52:00,76.5,62.0,29.87,South,170,5.0,-999.0,62,-99.99,,,0.00,weatherlink.com 1.10,2013-07-07 07:52:00,
2013-07-07 03:07:00,77.0,62.0,29.87,SSE,166,5.0,-999.0,60,-99.99,,,0.00,weatherlink.com 1.10,2013-07-07 08:07:00,
2013-07-07 03:22:00,77.2,62.0,29.87,SSE,157,1.0,-999.0,60,-99.99,,,0.00,weatherlink.com 1.10,2013-07-07 08:22:00,
2013-07-07 03:37:00,76.8,62.0,29.87,SSE,149,6.0,-999.0,60,-99.99,,,0.00,weatherlink.com 1.10,2013-07-07 08:37:00,
2013-07-07 03:52:00,76.8,62.0,29.87,SSE,161,4.0,-999.0,60,-99.99,,,0.00,weatherlink.com 1.10,2013-07-07 08:52:00,
2013-07-07 04:07:00,76.7,62.0,29.87,SSE,161,5.0,-999.0,61,-99.99,,,0.00,weatherlink.com 1.10,2013-07-07 09:07:00,
2013-07-07 04:22:00,76.3,62.0,29.87,SSE,164,0.0,-999.0,62,-99.99,,,0.00,weatherlink.com 1.10,2013-07-07 09:22:00,
2013-07-07 04:37:00,75.4,62.0,29.87,SSE,163,3.0,-999.0,64,-99.99,,,0.00,weatherlink.com 1.10,2013-07-07 09:37:00,
2013-07-07 04:52:00,74.7,62.0,29.88,SE,142,0.0,-999.0,65,-99.99,,,0.00,weatherlink.com 1.10,2013-07-07 09:52:00,
2013-07-07 05:07:00,74.0,62.0,29.88,SE,140,0.0,-999.0,67,-99.99,,,0.00,weatherlink.com 1.10,2013-07-07 10:07:00,
2013-07-07 05:22:00,73.3,63.0,29.88,SE,134,0.0,-999.0,69,-99.99,,,0.00,weatherlink.com 1.10,2013-07-07 10:22:00,
2013-07-07 05:37:00,72.5,63.0,29.89,SE,128,0.0,-999.0,71,-99.99,,,0.00,weatherlink.com 1.10,2013-07-07 10:37:00,
2013-07-07 05:52:00,72.0,63.0,29.89,SE,134,0.0,-999.0,73,-99.99,,,0.00,weatherlink.com 1.10,2013-07-07 10:52:00,
2013-07-07 06:07:00,72.1,63.0,29.89,SSE,160,1.0,-999.0,73,-99.99,,,0.00,weatherlink.com 1.10,2013-07-07 11:07:00,
2013-07-07 06:22:00,72.3,63.0,29.90,SSE,151,0.0,-999.0,73,-99.99,,,0.00,weatherlink.com 1.10,2013-07-07 11:22:00,
2013-07-07 06:37:00,72.1,63.0,29.90,SSE,165,6.0,-999.0,73,-99.99,,,0.00,weatherlink.com 1.10,2013-07-07 11:37:00,
2013-07-07 06:52:00,72.0,63.0,29.90,SSE,161,0.0,-999.0,74,-99.99,,,0.00,weatherlink.com 1.10,2013-07-07 11:52:00,
2013-07-07 07:07:00,72.1,63.0,29.92,SSE,161,3.0,-999.0,74,-99.99,,,0.00,weatherlink.com 1.10,2013-07-07 12:07:00,
2013-07-07 07:22:00,72.1,63.0,29.92,SSE,161,5.0,-999.0,74,-99.99,,,0.00,weatherlink.com 1.10,2013-07-07 12:22:00,
2013-07-07 07:37:00,72.5,64.0,29.92,SSE,161,4.0,-999.0,74,-99.99,,,0.00,weatherlink.com 1.10,2013-07-07 12:37:00,
2013-07-07 07:52:00,72.8,64.0,29.93,SE,140,0.0,-999.0,74,-99.99,,,0.00,weatherlink.com 1.10,2013-07-07 12:52:00,
2013-07-07 08:07:00,73.2,64.0,29.93,SSE,159,4.0,-999.0,73,-99.99,,,0.00,weatherlink.com 1.10,2013-07-07 13:07:00,
2013-07-07 08:22:00,73.7,65.0,29.94,SE,139,3.0,-999.0,73,-99.99,,,0.00,weatherlink.com 1.10,2013-07-07 13:22:00,
2013-07-07 08:37:00,74.7,65.0,29.95,SSE,150,0.0,-999.0,71,-99.99,,,0.00,weatherlink.com 1.10,2013-07-07 13:37:00,
2013-07-07 08:52:00,75.4,65.0,29.95,SSE,155,0.0,-999.0,70,-99.99,,,0.00,weatherlink.com 1.10,2013-07-07 13:52:00,
2013-07-07 09:07:00,76.5,66.0,29.95,South,172,0.0,-999.0,69,-99.99,,,0.00,weatherlink.com 1.10,2013-07-07 14:07:00,
2013-07-07 09:22:00,77.4,66.0,29.95,SSE,151,4.0,-999.0,68,-99.99,,,0.00,weatherlink.com 1.10,2013-07-07 14:22:00,
2013-07-07 09:37:00,78.5,66.0,29.95,South,169,5.0,-999.0,66,-99.99,,,0.00,weatherlink.com 1.10,2013-07-07 14:37:00,
2013-07-07 09:52:00,79.9,67.0,29.95,SSE,156,6.0,-999.0,64,-99.99,,,0.00,weatherlink.com 1.10,2013-07-07 14:52:00,
2013-07-07 10:07:00,80.5,67.0,29.95,South,169,2.0,-999.0,64,-99.99,,,0.00,weatherlink.com 1.10,2013-07-07 15:07:00,
2013-07-07 10:22:00,81.8,67.0,29.95,SW,224,5.0,-999.0,61,-99.99,,,0.00,weatherlink.com 1.10,2013-07-07 15:22:00,
2013-07-07 10:37:00,83.0,67.0,29.94,SSW,200,5.0,-999.0,58,-99.99,,,0.00,weatherlink.com 1.10,2013-07-07 15:37:00,
2013-07-07 10:52:00,84.0,67.0,29.94,SW,225,6.0,-999.0,57,-99.99,,,0.00,weatherlink.com 1.10,2013-07-07 15:52:00,
2013-07-07 11:07:00,85.5,67.0,29.94,SSW,195,4.0,-999.0,54,-99.99,,,0.00,weatherlink.com 1.10,2013-07-07 16:07:00,
2013-07-07 11:22:00,85.9,66.0,29.93,SSE,158,3.0,-999.0,52,-99.99,,,0.00,weatherlink.com 1.10,2013-07-07 16:22:00,
2013-07-07 11:37:00,86.7,66.0,29.93,South,171,4.0,-999.0,51,-99.99,,,0.00,weatherlink.com 1.10,2013-07-07 16:37:00,
2013-07-07 11:52:00,88.0,67.0,29.93,SSW,201,7.0,-999.0,50,-99.99,,,0.00,weatherlink.com 1.10,2013-07-07 16:52:00,
2013-07-07 12:07:00,87.8,67.0,29.93,SW,236,6.0,-999.0,50,-99.99,,,0.00,weatherlink.com 1.10,2013-07-07 17:07:00,
2013-07-07 12:22:00,88.6,67.0,29.93,South,174,6.0,-999.0,49,-99.99,,,0.00,weatherlink.com 1.10,2013-07-07 17:22:00,
2013-07-07 12:37:00,89.3,67.0,29.93,SSE,149,1.0,-999.0,48,-99.99,,,0.00,weatherlink.com 1.10,2013-07-07 17:37:00,
2013-07-07 12:52:00,90.3,67.0,29.92,South,188,8.0,-999.0,47,-99.99,,,0.00,weatherlink.com 1.10,2013-07-07 17:52:00,
2013-07-07 13:07:00,90.5,67.0,29.92,SSE,155,12.0,-999.0,46,-99.99,,,0.00,weatherlink.com 1.10,2013-07-07 18:07:00,
2013-07-07 13:22:00,91.0,66.0,29.93,SSW,192,2.0,-999.0,43,-99.99,,,0.00,weatherlink.com 1.10,2013-07-07 18:22:00,
2013-07-07 13:38:00,91.2,65.0,29.92,South,174,8.0,-999.0,42,-99.99,,,0.00,weatherlink.com 1.10,2013-07-07 18:38:00,
2013-07-07 13:52:00,91.2,66.0,29.92,SSE,166,5.0,-999.0,44,-99.99,,,0.00,weatherlink.com 1.10,2013-07-07 18:52:00,
2013-07-07 14:07:00,91.0,66.0,29.92,SE,130,0.0,-999.0,44,-99.99,,,0.00,weatherlink.com 1.10,2013-07-07 19:07:00,
2013-07-07 14:22:00,92.1,65.0,29.91,SSE,163,9.0,-999.0,41,-99.99,,,0.00,weatherlink.com 1.10,2013-07-07 19:22:00,
2013-07-07 14:37:00,92.1,65.0,29.91,South,173,8.0,-999.0,40,-99.99,,,0.00,weatherlink.com 1.10,2013-07-07 19:37:00,
2013-07-07 14:52:00,92.5,64.0,29.91,South,178,2.0,-999.0,39,-99.99,,,0.00,weatherlink.com 1.10,2013-07-07 19:52:00,
2013-07-07 15:07:00,92.1,64.0,29.91,South,183,10.0,-999.0,39,-99.99,,,0.00,weatherlink.com 1.10,2013-07-07 20:07:00,
2013-07-07 15:22:00,92.5,66.0,29.91,South,169,2.0,-999.0,41,-99.99,,,0.00,weatherlink.com 1.10,2013-07-07 20:22:00,
2013-07-07 15:37:00,93.2,66.0,29.90,SE,137,6.0,-999.0,40,-99.99,,,0.00,weatherlink.com 1.10,2013-07-07 20:37:00,
2013-07-07 15:52:00,92.9,65.0,29.89,South,183,3.0,-999.0,40,-99.99,,,0.00,weatherlink.com 1.10,2013-07-07 20:52:00,
2013-07-07 16:07:00,92.5,63.0,29.89,SE,144,0.0,-999.0,37,-99.99,,,0.00,weatherlink.com 1.10,2013-07-07 21:07:00,
2013-07-07 16:22:00,92.3,60.0,29.89,SSE,150,10.0,-999.0,34,-99.99,,,0.00,weatherlink.com 1.10,2013-07-07 21:22:00,
2013-07-07 16:37:00,92.7,61.0,29.88,SSE,150,10.0,-999.0,35,-99.99,,,0.00,weatherlink.com 1.10,2013-07-07 21:37:00,
2013-07-07 16:52:00,92.9,61.0,29.88,South,170,11.0,-999.0,34,-99.99,,,0.00,weatherlink.com 1.10,2013-07-07 21:52:00,
2013-07-07 17:07:00,92.5,63.0,29.88,South,186,11.0,-999.0,38,-99.99,,,0.00,weatherlink.com 1.10,2013-07-07 22:07:00,
2013-07-07 17:22:00,92.7,63.0,29.88,South,182,6.0,-999.0,37,-99.99,,,0.00,weatherlink.com 1.10,2013-07-07 22:22:00,
2013-07-07 17:37:00,92.3,63.0,29.88,SE,130,6.0,-999.0,38,-99.99,,,0.00,weatherlink.com 1.10,2013-07-07 22:37:00,
2013-07-07 17:52:00,92.3,62.0,29.88,SSE,156,13.0,-999.0,37,-99.99,,,0.00,weatherlink.com 1.10,2013-07-07 22:52:00,
2013-07-07 18:07:00,92.5,63.0,29.87,SSE,164,7.0,-999.0,37,-99.99,,,0.00,weatherlink.com 1.10,2013-07-07 23:07:00,
2013-07-07 18:22:00,92.1,63.0,29.86,South,179,8.0,-999.0,38,-99.99,,,0.00,weatherlink.com 1.10,2013-07-07 23:22:00,
2013-07-07 18:37:00,91.8,63.0,29.86,South,178,7.0,-999.0,38,-99.99,,,0.00,weatherlink.com 1.10,2013-07-07 23:37:00,
2013-07-07 18:52:00,91.8,63.0,29.87,SSE,163,4.0,-999.0,39,-99.99,,,0.00,weatherlink.com 1.10,2013-07-07 23:52:00,
2013-07-07 19:07:00,91.0,64.0,29.87,South,178,7.0,-999.0,40,-99.99,,,0.00,weatherlink.com 1.10,2013-07-08 00:07:00,
2013-07-07 19:22:00,90.7,64.0,29.86,SSE,165,4.0,-999.0,41,-99.99,,,0.00,weatherlink.com 1.10,2013-07-08 00:22:00,
2013-07-07 19:37:00,90.5,64.0,29.87,South,182,4.0,-999.0,41,-99.99,,,0.00,weatherlink.com 1.10,2013-07-08 00:37:00,
2013-07-07 19:52:00,90.3,64.0,29.88,SSE,160,0.0,-999.0,42,-99.99,,,0.00,weatherlink.com 1.10,2013-07-08 00:52:00,
2013-07-07 20:07:00,90.1,64.0,29.88,SSW,196,0.0,-999.0,42,-99.99,,,0.00,weatherlink.com 1.10,2013-07-08 01:07:00,
2013-07-07 20:22:00,89.7,64.0,29.88,South,186,0.0,-999.0,43,-99.99,,,0.00,weatherlink.com 1.10,2013-07-08 01:22:00,
2013-07-07 20:37:00,88.6,65.0,29.89,South,182,0.0,-999.0,45,-99.99,,,0.00,weatherlink.com 1.10,2013-07-08 01:37:00,
2013-07-07 20:52:00,87.2,66.0,29.89,SSE,157,0.0,-999.0,49,-99.99,,,0.00,weatherlink.com 1.10,2013-07-08 01:52:00,
2013-07-07 21:07:00,86.3,66.0,29.89,SSE,157,0.0,-999.0,51,-99.99,,,0.00,weatherlink.com 1.10,2013-07-08 02:07:00,
2013-07-07 21:22:00,85.5,66.0,29.89,SSE,157,0.0,-999.0,52,-99.99,,,0.00,weatherlink.com 1.10,2013-07-08 02:22:00,
2013-07-07 21:37:00,84.9,66.0,29.90,SSE,157,0.0,-999.0,53,-99.99,,,0.00,weatherlink.com 1.10,2013-07-08 02:37:00,
2013-07-07 21:52:00,84.5,66.0,29.90,SSE,157,0.0,-999.0,54,-99.99,,,0.00,weatherlink.com 1.10,2013-07-08 02:52:00,
2013-07-07 22:07:00,84.3,66.0,29.91,SSE,157,0.0,-999.0,54,-99.99,,,0.00,weatherlink.com 1.10,2013-07-08 03:07:00,
2013-07-07 22:22:00,83.8,66.0,29.91,SSE,157,0.0,-999.0,56,-99.99,,,0.00,weatherlink.com 1.10,2013-07-08 03:22:00,
2013-07-07 22:37:00,83.2,66.0,29.91,SSE,157,0.0,-999.0,57,-99.99,,,0.00,weatherlink.com 1.10,2013-07-08 03:37:00,
2013-07-07 22:52:00,83.0,66.0,29.92,SSE,157,0.0,-999.0,57,-99.99,,,0.00,weatherlink.com 1.10,2013-07-08 03:52:00,
2013-07-07 23:07:00,82.2,66.0,29.92,SSE,157,0.0,-999.0,59,-99.99,,,0.00,weatherlink.com 1.10,2013-07-08 04:07:00,
2013-07-07 23:22:00,81.8,66.0,29.92,SSE,157,0.0,-999.0,60,-99.99,,,0.00,weatherlink.com 1.10,2013-07-08 04:22:00,
2013-07-07 23:37:00,81.8,66.0,29.92,SSE,157,0.0,-999.0,59,-99.99,,,0.00,weatherlink.com 1.10,2013-07-08 04:37:00,
2013-07-07 23:52:00,81.6,66.0,29.92,SSE,157,0.0,-999.0,59,-99.99,,,0.00,weatherlink.com 1.10,2013-07-08 04:52:00,